Time,TemperatureF,DewpointF,PressureIn,WindDirection,WindDirectionDegrees,WindSpeedMPH,WindSpeedGustMPH,Humidity,HourlyPrecipIn,Conditions,Clouds,dailyrainin,SoftwareType,DateUTC
2013-05-21 10:08:00,71.3,64.4,29.66,SSW,212,5.0,15.0,79,0.00,,,0.01,Wunderground v.1.15,2013-05-21 15:08:00,
2013-05-21 10:10:00,71.5,64.6,29.66,SW,220,4.0,6.0,79,0.00,,,0.01,Wunderground v.1.15,2013-05-21 15:10:00,
2013-05-21 10:13:00,71.6,64.4,29.66,SSW,199,4.0,8.0,78,0.00,,,0.01,Wunderground v.1.15,2013-05-21 15:13:00,
2013-05-21 10:18:00,71.8,63.8,29.66,SW,232,4.0,11.0,76,0.00,,,0.01,Wunderground v.1.15,2013-05-21 15:18:00,
2013-05-21 10:19:00,71.8,64.2,29.66,SSW,206,5.0,11.0,77,0.00,,,0.01,Wunderground v.1.15,2013-05-21 15:19:00,
2013-05-21 10:20:00,72.0,64.4,29.66,SW,234,5.0,5.0,77,0.00,,,0.01,Wunderground v.1.15,2013-05-21 15:20:00,
2013-05-21 10:26:00,72.3,63.9,29.66,SW,223,4.0,9.0,75,0.00,,,0.01,Wunderground v.1.15,2013-05-21 15:26:00,
2013-05-21 10:32:00,72.5,64.1,29.66,SW,230,6.0,12.0,75,0.00,,,0.01,Wunderground v.1.15,2013-05-21 15:32:00,
2013-05-21 10:37:00,72.5,63.4,29.66,WSW,239,7.0,13.0,73,0.00,,,0.01,Wunderground v.1.15,2013-05-21 15:37:00,
2013-05-21 10:42:00,72.7,63.1,29.66,SW,215,7.0,8.0,72,0.00,,,0.01,Wunderground v.1.15,2013-05-21 15:42:00,
2013-05-21 10:48:00,73.0,62.2,29.66,SW,230,6.0,18.0,69,0.00,,,0.01,Wunderground v.1.15,2013-05-21 15:48:00,
2013-05-21 10:53:00,72.8,62.4,29.66,South,169,7.0,11.0,70,0.00,,,0.01,Wunderground v.1.15,2013-05-21 15:53:00,
2013-05-21 10:58:00,73.5,63.1,29.66,SW,233,8.0,11.0,70,0.00,,,0.01,Wunderground v.1.15,2013-05-21 15:58:00,
2013-05-21 11:04:00,73.9,62.2,29.66,SW,220,6.0,8.0,67,0.00,,,0.01,Wunderground v.1.15,2013-05-21 16:04:00,
2013-05-21 11:09:00,74.2,63.0,29.66,SW,222,5.0,9.0,68,0.00,,,0.01,Wunderground v.1.15,2013-05-21 16:09:00,
2013-05-21 11:14:00,74.7,62.1,29.66,SW,216,5.0,7.0,65,0.00,,,0.01,Wunderground v.1.15,2013-05-21 16:14:00,
2013-05-21 11:20:00,74.7,63.0,29.66,SW,227,6.0,8.0,67,0.00,,,0.01,Wunderground v.1.15,2013-05-21 16:20:00,
2013-05-21 11:25:00,74.7,62.6,29.66,SW,217,6.0,14.0,66,0.00,,,0.01,Wunderground v.1.15,2013-05-21 16:25:00,
2013-05-21 11:30:00,75.1,62.5,29.65,South,186,6.0,6.0,65,0.00,,,0.01,Wunderground v.1.15,2013-05-21 16:30:00,
2013-05-21 11:36:00,75.3,62.3,29.65,WSW,240,6.0,12.0,64,0.00,,,0.01,Wunderground v.1.15,2013-05-21 16:36:00,
2013-05-21 11:41:00,75.4,61.5,29.65,WSW,258,7.0,7.0,62,0.00,,,0.01,Wunderground v.1.15,2013-05-21 16:41:00,
2013-05-21 11:46:00,76.0,62.9,29.65,WSW,237,6.0,10.0,64,0.00,,,0.01,Wunderground v.1.15,2013-05-21 16:46:00,
2013-05-21 11:52:00,76.3,60.9,29.65,SSW,206,5.0,11.0,59,0.00,,,0.01,Wunderground v.1.15,2013-05-21 16:52:00,
2013-05-21 11:57:00,76.3,61.4,29.65,SW,215,5.0,12.0,60,0.00,,,0.01,Wunderground v.1.15,2013-05-21 16:57:00,
2013-05-21 12:03:00,76.1,59.8,29.64,SSW,203,7.0,11.0,57,0.00,,,0.01,Wunderground v.1.15,2013-05-21 17:03:00,
2013-05-21 12:09:00,76.3,60.9,29.64,South,185,7.0,11.0,59,0.00,,,0.01,Wunderground v.1.15,2013-05-21 17:09:00,
2013-05-21 12:14:00,76.8,60.9,29.64,South,184,6.0,12.0,58,0.00,,,0.01,Wunderground v.1.15,2013-05-21 17:14:00,
2013-05-21 12:19:00,76.5,59.6,29.65,SSW,196,7.0,16.0,56,0.00,,,0.01,Wunderground v.1.15,2013-05-21 17:19:00,
2013-05-21 12:25:00,76.7,59.8,29.65,SSW,200,9.0,17.0,56,0.00,,,0.01,Wunderground v.1.15,2013-05-21 17:25:00,
2013-05-21 12:30:00,76.7,59.8,29.65,SW,217,9.0,9.0,56,0.00,,,0.01,Wunderground v.1.15,2013-05-21 17:30:00,
2013-05-21 12:36:00,76.8,59.9,29.65,SW,230,9.0,12.0,56,0.00,,,0.01,Wunderground v.1.15,2013-05-21 17:36:00,
2013-05-21 12:42:00,77.2,60.3,29.65,SW,215,8.0,16.0,56,0.00,,,0.01,Wunderground v.1.15,2013-05-21 17:42:00,
2013-05-21 12:48:00,77.6,59.6,29.66,South,179,7.0,16.0,54,0.00,,,0.01,Wunderground v.1.15,2013-05-21 17:48:00,
2013-05-21 12:53:00,77.7,60.2,29.66,SW,234,7.0,8.0,55,0.00,,,0.01,Wunderground v.1.15,2013-05-21 17:53:00,
2013-05-21 12:58:00,78.3,60.3,29.66,SW,224,6.0,12.0,54,0.00,,,0.01,Wunderground v.1.15,2013-05-21 17:58:00,
2013-05-21 13:04:00,78.1,59.0,29.66,SSW,198,7.0,16.0,52,0.00,,,0.01,Wunderground v.1.15,2013-05-21 18:04:00,
2013-05-21 13:09:00,77.9,58.9,29.66,WNW,298,8.0,16.0,52,0.00,,,0.01,Wunderground v.1.15,2013-05-21 18:09:00,
2013-05-21 13:14:00,77.9,58.3,29.66,SW,222,9.0,13.0,51,0.00,,,0.01,Wunderground v.1.15,2013-05-21 18:14:00,
2013-05-21 13:19:00,77.7,58.1,29.66,West,260,9.0,13.0,51,0.00,,,0.01,Wunderground v.1.15,2013-05-21 18:19:00,
2013-05-21 13:25:00,77.7,58.7,29.66,SSW,192,9.0,14.0,52,0.00,,,0.01,Wunderground v.1.15,2013-05-21 18:25:00,
2013-05-21 13:30:00,77.9,59.4,29.65,WSW,239,9.0,9.0,53,0.00,,,0.01,Wunderground v.1.15,2013-05-21 18:30:00,
2013-05-21 13:35:00,78.6,60.0,29.65,WSW,248,7.0,9.0,53,0.00,,,0.01,Wunderground v.1.15,2013-05-21 18:35:00,
2013-05-21 13:40:00,78.8,59.1,29.65,SSW,210,6.0,12.0,51,0.00,,,0.01,Wunderground v.1.15,2013-05-21 18:40:00,
2013-05-21 13:46:00,78.6,60.0,29.65,SW,222,7.0,13.0,53,0.00,,,0.01,Wunderground v.1.15,2013-05-21 18:46:00,
2013-05-21 13:52:00,78.3,58.7,29.65,SW,223,7.0,8.0,51,0.00,,,0.01,Wunderground v.1.15,2013-05-21 18:52:00,
2013-05-21 13:57:00,78.6,60.0,29.65,SW,216,7.0,8.0,53,0.00,,,0.01,Wunderground v.1.15,2013-05-21 18:57:00,
2013-05-21 14:03:00,78.5,58.3,29.65,West,261,8.0,14.0,50,0.00,,,0.01,Wunderground v.1.15,2013-05-21 19:03:00,
2013-05-21 14:08:00,78.3,58.7,29.65,SSW,210,9.0,14.0,51,0.00,,,0.01,Wunderground v.1.15,2013-05-21 19:08:00,
2013-05-21 14:14:00,78.6,59.5,29.65,SW,229,8.0,19.0,52,0.00,,,0.01,Wunderground v.1.15,2013-05-21 19:14:00,
2013-05-21 14:19:00,79.0,59.3,29.65,WSW,246,7.0,19.0,51,0.00,,,0.01,Wunderground v.1.15,2013-05-21 19:19:00,
2013-05-21 14:25:00,78.8,60.2,29.65,West,272,8.0,14.0,53,0.00,,,0.01,Wunderground v.1.15,2013-05-21 19:25:00,
2013-05-21 14:30:00,78.8,60.7,29.64,South,186,7.0,8.0,54,0.00,,,0.01,Wunderground v.1.15,2013-05-21 19:30:00,
2013-05-21 14:36:00,79.4,61.3,29.64,SSE,160,5.0,11.0,54,0.00,,,0.01,Wunderground v.1.15,2013-05-21 19:36:00,
2013-05-21 14:42:00,78.8,59.1,29.64,SSW,213,6.0,12.0,51,0.00,,,0.01,Wunderground v.1.15,2013-05-21 19:42:00,
2013-05-21 14:47:00,78.8,59.1,29.65,WSW,243,6.0,12.0,51,0.00,,,0.01,Wunderground v.1.15,2013-05-21 19:47:00,
2013-05-21 14:53:00,79.0,59.3,29.65,SW,233,6.0,8.0,51,0.00,,,0.01,Wunderground v.1.15,2013-05-21 19:53:00,
2013-05-21 14:58:00,79.2,60.6,29.65,WSW,243,7.0,10.0,53,0.00,,,0.01,Wunderground v.1.15,2013-05-21 19:58:00,
2013-05-21 15:03:00,79.4,60.8,29.65,SW,229,8.0,12.0,53,0.00,,,0.01,Wunderground v.1.15,2013-05-21 20:03:00,
2013-05-21 15:08:00,79.6,60.4,29.65,SW,215,8.0,12.0,52,0.00,,,0.01,Wunderground v.1.15,2013-05-21 20:08:00,
2013-05-21 15:14:00,79.8,61.1,29.65,WNW,302,5.0,7.0,53,0.00,,,0.01,Wunderground v.1.15,2013-05-21 20:14:00,
2013-05-21 15:19:00,79.4,61.8,29.64,South,174,5.0,11.0,55,0.00,,,0.01,Wunderground v.1.15,2013-05-21 20:19:00,
2013-05-21 15:25:00,78.6,62.1,29.64,SW,232,4.0,10.0,57,0.00,,,0.01,Wunderground v.1.15,2013-05-21 20:25:00,
2013-05-21 15:30:00,78.6,62.6,29.64,SSE,160,4.0,10.0,58,0.00,,,0.01,Wunderground v.1.15,2013-05-21 20:30:00,
2013-05-21 15:36:00,79.0,62.0,29.64,South,184,6.0,10.0,56,0.00,,,0.01,Wunderground v.1.15,2013-05-21 20:36:00,
2013-05-21 15:42:00,79.8,61.1,29.64,West,268,6.0,6.0,53,0.00,,,0.01,Wunderground v.1.15,2013-05-21 20:42:00,
2013-05-21 15:47:00,80.1,61.4,29.63,ESE,114,5.0,8.0,53,0.00,,,0.01,Wunderground v.1.15,2013-05-21 20:47:00,
2013-05-21 15:53:00,80.5,62.8,29.63,SSW,196,3.0,4.0,55,0.00,,,0.01,Wunderground v.1.15,2013-05-21 20:53:00,
2013-05-21 15:58:00,79.6,62.5,29.63,SW,215,4.0,8.0,56,0.00,,,0.01,Wunderground v.1.15,2013-05-21 20:58:00,
2013-05-21 16:04:00,79.6,62.5,29.63,SSW,208,6.0,11.0,56,0.00,,,0.01,Wunderground v.1.15,2013-05-21 21:04:00,
2013-05-21 16:09:00,79.6,62.5,29.63,SW,223,5.0,11.0,56,0.00,,,0.01,Wunderground v.1.15,2013-05-21 21:09:00,
2013-05-21 16:15:00,79.0,62.5,29.64,WSW,239,5.0,11.0,57,0.00,,,0.01,Wunderground v.1.15,2013-05-21 21:15:00,
2013-05-21 16:20:00,78.8,62.8,29.64,South,171,3.0,3.0,58,0.00,,,0.01,Wunderground v.1.15,2013-05-21 21:20:00,
2013-05-21 16:26:00,78.5,62.0,29.64,South,185,4.0,11.0,57,0.00,,,0.01,Wunderground v.1.15,2013-05-21 21:26:00,
2013-05-21 16:32:00,78.3,62.8,29.63,SSW,195,5.0,5.0,59,0.00,,,0.01,Wunderground v.1.15,2013-05-21 21:32:00,
2013-05-21 16:37:00,78.1,63.1,29.63,SSW,205,3.0,7.0,60,0.00,,,0.01,Wunderground v.1.15,2013-05-21 21:37:00,
2013-05-21 16:42:00,78.3,62.8,29.63,SSW,192,3.0,4.0,59,0.00,,,0.01,Wunderground v.1.15,2013-05-21 21:42:00,
2013-05-21 16:47:00,78.3,63.3,29.63,South,171,4.0,11.0,60,0.00,,,0.01,Wunderground v.1.15,2013-05-21 21:47:00,
2013-05-21 16:53:00,78.1,62.6,29.63,South,186,4.0,8.0,59,0.00,,,0.01,Wunderground v.1.15,2013-05-21 21:53:00,
2013-05-21 16:58:00,78.3,62.8,29.63,SSE,157,3.0,8.0,59,0.00,,,0.01,Wunderground v.1.15,2013-05-21 21:58:00,
2013-05-21 17:03:00,78.6,63.6,29.62,SW,224,3.0,8.0,60,0.00,,,0.01,Wunderground v.1.15,2013-05-21 22:03:00,
2013-05-21 17:09:00,78.3,62.3,29.62,SW,219,5.0,10.0,58,0.00,,,0.01,Wunderground v.1.15,2013-05-21 22:09:00,
2013-05-21 17:15:00,78.3,62.3,29.61,South,191,4.0,6.0,58,0.00,,,0.01,Wunderground v.1.15,2013-05-21 22:15:00,
2013-05-21 17:20:00,78.3,61.3,29.61,South,176,4.0,6.0,56,0.00,,,0.01,Wunderground v.1.15,2013-05-21 22:20:00,
2013-05-21 17:26:00,78.1,62.1,29.61,SW,222,5.0,7.0,58,0.00,,,0.01,Wunderground v.1.15,2013-05-21 22:26:00,
2013-05-21 17:32:00,78.5,62.0,29.61,SW,219,4.0,5.0,57,0.00,,,0.01,Wunderground v.1.15,2013-05-21 22:32:00,
2013-05-21 17:37:00,78.6,61.6,29.61,SSW,200,5.0,7.0,56,0.00,,,0.01,Wunderground v.1.15,2013-05-21 22:37:00,
2013-05-21 17:43:00,79.2,62.1,29.61,SW,224,4.0,5.0,56,0.00,,,0.01,Wunderground v.1.15,2013-05-21 22:43:00,
2013-05-21 17:48:00,79.0,62.5,29.60,SW,217,3.0,7.0,57,0.00,,,0.01,Wunderground v.1.15,2013-05-21 22:48:00,
2013-05-21 17:54:00,78.5,62.5,29.60,West,261,3.0,6.0,58,0.00,,,0.01,Wunderground v.1.15,2013-05-21 22:54:00,
2013-05-21 17:59:00,78.1,61.6,29.60,SW,220,4.0,7.0,57,0.00,,,0.01,Wunderground v.1.15,2013-05-21 22:59:00,
2013-05-21 18:05:00,77.4,61.9,29.60,SW,233,5.0,8.0,59,0.00,,,0.01,Wunderground v.1.15,2013-05-21 23:05:00,
2013-05-21 18:10:00,77.2,61.8,29.60,SSW,213,3.0,6.0,59,0.00,,,0.01,Wunderground v.1.15,2013-05-21 23:10:00,
2013-05-21 18:16:00,77.6,62.1,29.60,SW,224,4.0,9.0,59,0.00,,,0.01,Wunderground v.1.15,2013-05-21 23:16:00,
2013-05-21 18:22:00,77.7,62.2,29.60,SSW,203,3.0,3.0,59,0.00,,,0.01,Wunderground v.1.15,2013-05-21 23:22:00,
2013-05-21 18:27:00,77.4,62.4,29.60,SW,234,2.0,6.0,60,0.00,,,0.01,Wunderground v.1.15,2013-05-21 23:27:00,
2013-05-21 18:33:00,77.2,61.8,29.60,WSW,240,2.0,5.0,59,0.00,,,0.01,Wunderground v.1.15,2013-05-21 23:33:00,
2013-05-21 18:38:00,76.8,61.4,29.60,WSW,241,2.0,5.0,59,0.00,,,0.01,Wunderground v.1.15,2013-05-21 23:38:00,
2013-05-21 18:44:00,76.8,61.4,29.60,SSW,212,2.0,5.0,59,0.00,,,0.01,Wunderground v.1.15,2013-05-21 23:44:00,
2013-05-21 18:49:00,76.5,61.6,29.61,SW,220,2.0,7.0,60,0.00,,,0.01,Wunderground v.1.15,2013-05-21 23:49:00,
2013-05-21 18:55:00,76.3,61.4,29.61,WSW,254,1.0,6.0,60,0.00,,,0.01,Wunderground v.1.15,2013-05-21 23:55:00,
2013-05-21 19:00:00,76.0,62.0,29.62,SW,222,2.0,6.0,62,0.00,,,0.01,Wunderground v.1.15,2013-05-22 00:00:00,
2013-05-21 19:06:00,75.8,62.3,29.62,SSW,208,3.0,6.0,63,0.00,,,0.01,Wunderground v.1.15,2013-05-22 00:06:00,
2013-05-21 19:12:00,76.0,62.5,29.62,SSW,195,3.0,3.0,63,0.00,,,0.01,Wunderground v.1.15,2013-05-22 00:12:00,
2013-05-21 19:17:00,75.8,62.3,29.62,WSW,239,2.0,3.0,63,0.00,,,0.01,Wunderground v.1.15,2013-05-22 00:17:00,
2013-05-21 19:23:00,75.6,62.6,29.62,WSW,237,1.0,3.0,64,0.00,,,0.01,Wunderground v.1.15,2013-05-22 00:23:00,
2013-05-21 19:28:00,75.3,62.7,29.62,WNW,287,1.0,8.0,65,0.00,,,0.01,Wunderground v.1.15,2013-05-22 00:28:00,
2013-05-21 19:34:00,75.1,62.1,29.63,WNW,287,1.0,1.0,64,0.00,,,0.01,Wunderground v.1.15,2013-05-22 00:34:00,
2013-05-21 19:40:00,75.1,62.1,29.63,WNW,287,0.0,1.0,64,0.00,,,0.01,Wunderground v.1.15,2013-05-22 00:40:00,
2013-05-21 19:46:00,74.9,61.9,29.63,WSW,250,0.0,2.0,64,0.00,,,0.01,Wunderground v.1.15,2013-05-22 00:46:00,
2013-05-21 19:52:00,74.7,62.1,29.63,West,264,1.0,1.0,65,0.00,,,0.01,Wunderground v.1.15,2013-05-22 00:52:00,
2013-05-21 19:58:00,74.6,62.1,29.63,West,261,1.0,3.0,65,0.00,,,0.01,Wunderground v.1.15,2013-05-22 00:58:00,
2013-05-21 20:03:00,74.4,62.3,29.63,West,264,1.0,1.0,66,0.00,,,0.01,Wunderground v.1.15,2013-05-22 01:03:00,
2013-05-21 20:09:00,74.2,62.5,29.63,WNW,294,1.0,5.0,67,0.00,,,0.01,Wunderground v.1.15,2013-05-22 01:09:00,
2013-05-21 20:14:00,73.9,62.2,29.63,WNW,289,1.0,2.0,67,0.00,,,0.01,Wunderground v.1.15,2013-05-22 01:14:00,
2013-05-21 20:20:00,73.5,61.9,29.63,WNW,285,1.0,1.0,67,0.00,,,0.01,Wunderground v.1.15,2013-05-22 01:20:00,
2013-05-21 20:26:00,73.3,61.7,29.63,SW,222,1.0,1.0,67,0.00,,,0.01,Wunderground v.1.15,2013-05-22 01:26:00,
2013-05-21 20:31:00,73.2,61.6,29.63,WSW,244,1.0,1.0,67,0.00,,,0.01,Wunderground v.1.15,2013-05-22 01:31:00,
2013-05-21 20:36:00,73.0,61.8,29.63,WSW,244,0.0,1.0,68,0.00,,,0.01,Wunderground v.1.15,2013-05-22 01:36:00,
2013-05-21 20:42:00,72.7,61.5,29.63,WSW,246,0.0,3.0,68,0.00,,,0.01,Wunderground v.1.15,2013-05-22 01:42:00,
2013-05-21 20:47:00,72.5,61.3,29.63,WSW,246,0.0,3.0,68,0.00,,,0.01,Wunderground v.1.15,2013-05-22 01:47:00,
2013-05-21 20:53:00,72.1,61.8,29.63,WSW,246,0.0,0.0,70,0.00,,,0.01,Wunderground v.1.15,2013-05-22 01:53:00,
2013-05-21 20:58:00,71.8,61.1,29.63,WSW,246,0.0,0.0,69,0.00,,,0.01,Wunderground v.1.15,2013-05-22 01:58:00,
2013-05-21 21:04:00,71.5,61.2,29.63,WSW,246,0.0,0.0,70,0.00,,,0.01,Wunderground v.1.15,2013-05-22 02:04:00,
2013-05-21 21:09:00,71.1,60.4,29.63,WSW,246,0.0,0.0,69,0.00,,,0.01,Wunderground v.1.15,2013-05-22 02:09:00,
2013-05-21 21:15:00,70.9,60.2,29.63,WSW,246,0.0,0.0,69,0.00,,,0.01,Wunderground v.1.15,2013-05-22 02:15:00,
2013-05-21 21:20:00,70.6,60.7,29.63,WSW,246,0.0,0.0,71,0.00,,,0.01,Wunderground v.1.15,2013-05-22 02:20:00,
2013-05-21 21:26:00,70.4,61.7,29.63,WSW,246,0.0,0.0,74,0.00,,,0.01,Wunderground v.1.15,2013-05-22 02:26:00,
2013-05-21 21:32:00,69.9,61.2,29.63,WSW,246,0.0,0.0,74,0.00,,,0.01,Wunderground v.1.15,2013-05-22 02:32:00,
2013-05-21 21:38:00,69.4,60.8,29.63,WSW,246,0.0,0.0,74,0.00,,,0.01,Wunderground v.1.15,2013-05-22 02:38:00,
2013-05-21 21:44:00,68.8,60.6,29.63,WSW,246,0.0,0.0,75,0.00,,,0.01,Wunderground v.1.15,2013-05-22 02:44:00,
2013-05-21 21:50:00,68.4,60.9,29.63,WSW,246,0.0,0.0,77,0.00,,,0.01,Wunderground v.1.15,2013-05-22 02:50:00,
2013-05-21 21:56:00,68.1,61.3,29.63,WSW,246,0.0,0.0,79,0.00,,,0.01,Wunderground v.1.15,2013-05-22 02:56:00,
2013-05-21 22:01:00,67.8,61.4,29.62,WSW,246,0.0,0.0,80,0.00,,,0.01,Wunderground v.1.15,2013-05-22 03:01:00,
2013-05-21 22:07:00,67.4,61.0,29.62,WSW,246,0.0,0.0,80,0.00,,,0.01,Wunderground v.1.15,2013-05-22 03:07:00,
2013-05-21 22:13:00,66.9,60.9,29.62,WSW,246,0.0,0.0,81,0.00,,,0.01,Wunderground v.1.15,2013-05-22 03:13:00,
2013-05-21 22:18:00,66.6,60.6,29.61,WSW,246,0.0,0.0,81,0.00,,,0.01,Wunderground v.1.15,2013-05-22 03:18:00,
2013-05-21 22:24:00,66.3,60.6,29.61,WSW,246,0.0,0.0,82,0.00,,,0.01,Wunderground v.1.15,2013-05-22 03:24:00,
2013-05-21 22:29:00,66.1,60.8,29.61,WSW,246,0.0,0.0,83,0.00,,,0.01,Wunderground v.1.15,2013-05-22 03:29:00,
2013-05-21 22:35:00,65.6,60.6,29.62,WSW,246,0.0,0.0,84,0.00,,,0.01,Wunderground v.1.15,2013-05-22 03:35:00,
2013-05-21 22:40:00,65.5,60.9,29.62,WSW,246,0.0,0.0,85,0.00,,,0.01,Wunderground v.1.15,2013-05-22 03:40:00,
2013-05-21 22:46:00,65.2,60.9,29.62,WSW,246,0.0,0.0,86,0.00,,,0.01,Wunderground v.1.15,2013-05-22 03:46:00,
2013-05-21 22:52:00,64.8,60.8,29.62,WSW,246,0.0,0.0,87,0.00,,,0.01,Wunderground v.1.15,2013-05-22 03:52:00,
2013-05-21 22:57:00,64.5,60.9,29.62,WSW,246,0.0,0.0,88,0.00,,,0.01,Wunderground v.1.15,2013-05-22 03:57:00,
2013-05-21 23:01:00,64.3,60.7,29.62,WSW,246,0.0,0.0,88,0.00,,,0.01,Wunderground v.1.15,2013-05-22 04:01:00,
2013-05-21 23:02:00,64.3,60.7,29.62,WSW,246,0.0,0.0,88,0.00,,,0.01,Wunderground v.1.15,2013-05-22 04:02:00,
2013-05-21 23:04:00,64.3,61.0,29.62,WSW,246,0.0,0.0,89,0.00,,,0.01,Wunderground v.1.15,2013-05-22 04:04:00,
2013-05-21 23:06:00,64.2,60.9,29.62,WSW,246,0.0,0.0,89,0.00,,,0.01,Wunderground v.1.15,2013-05-22 04:06:00,
2013-05-21 23:07:00,64.2,60.9,29.62,WSW,246,0.0,0.0,89,0.00,,,0.01,Wunderground v.1.15,2013-05-22 04:07:00,
2013-05-21 23:13:00,64.0,60.7,29.62,WSW,246,0.0,0.0,89,0.00,,,0.01,Wunderground v.1.15,2013-05-22 04:13:00,
2013-05-21 23:19:00,63.9,60.6,29.63,WSW,246,0.0,0.0,89,0.00,,,0.01,Wunderground v.1.15,2013-05-22 04:19:00,
2013-05-21 23:24:00,63.7,60.4,29.63,WSW,246,0.0,0.0,89,0.00,,,0.01,Wunderground v.1.15,2013-05-22 04:24:00,
2013-05-21 23:30:00,63.5,60.2,29.63,WSW,246,0.0,0.0,89,0.00,,,0.01,Wunderground v.1.15,2013-05-22 04:30:00,
2013-05-21 23:35:00,63.7,60.4,29.63,WSW,246,0.0,0.0,89,0.00,,,0.01,Wunderground v.1.15,2013-05-22 04:35:00,
2013-05-21 23:40:00,63.7,60.4,29.63,WSW,246,0.0,0.0,89,0.00,,,0.01,Wunderground v.1.15,2013-05-22 04:40:00,
2013-05-21 23:46:00,63.9,60.6,29.63,WSW,246,0.0,0.0,89,0.00,,,0.01,Wunderground v.1.15,2013-05-22 04:46:00,
2013-05-21 23:51:00,64.0,60.7,29.63,WSW,246,0.0,0.0,89,0.00,,,0.01,Wunderground v.1.15,2013-05-22 04:51:00,
2013-05-21 23:57:00,64.2,60.9,29.63,WSW,246,0.0,0.0,89,0.00,,,0.01,Wunderground v.1.15,2013-05-22 04:57:00,